EJA1106 KRDU-KHVN

Flight info

Callsign EJA1106
Flight time 1h 18m
Altitude 45000
Route HURIC4 FEBEL GUILD SAWED KALDA SARDI1
Aircraft C700/M-SBDGHM1RWXY/LB2

Departure

Time 2026-05-06 16:04
Airport Raleigh-Durham International Airport (KRDU)

Arrival

Time 2026-05-06 17:23
Airport Tweed New Haven Airport (KHVN)
Time Latitude Longitude Altitude Speed Heading
2026-05-06 14:53 35.88108 -78.78152 436 ft 0 kts 44°
2026-05-06 15:59 35.88111 -78.78147 415 ft 4 kts 44°
2026-05-06 15:59 35.88125 -78.78109 434 ft 5 kts 111°
2026-05-06 15:59 35.88106 -78.78082 432 ft 0 kts 136°
2026-05-06 16:01 35.88092 -78.78064 432 ft 9 kts 135°
2026-05-06 16:01 35.88032 -78.78077 432 ft 14 kts 192°
2026-05-06 16:01 35.87975 -78.78039 437 ft 7 kts 136°
2026-05-06 16:01 35.87964 -78.78026 437 ft 0 kts 136°
2026-05-06 16:03 35.87941 -78.78000 437 ft 11 kts 137°
2026-05-06 16:03 35.87847 -78.78030 433 ft 32 kts 227°
2026-05-06 16:04 35.87637 -78.78293 428 ft 98 kts 224°
2026-05-06 16:04 35.86979 -78.79138 739 ft 161 kts 225°
2026-05-06 16:04 35.85876 -78.80539 1988 ft 202 kts 225°
2026-05-06 16:04 35.85241 -78.81460 2674 ft 203 kts 238°
2026-05-06 16:05 35.85019 -78.83070 4236 ft 200 kts 277°
2026-05-06 16:05 35.85784 -78.84640 5614 ft 236 kts 311°
2026-05-06 16:05 35.87358 -78.85486 7226 ft 262 kts 345°
2026-05-06 16:05 35.89216 -78.85165 8952 ft 282 kts 16°
2026-05-06 16:06 35.90923 -78.83820 10490 ft 301 kts 37°
2026-05-06 16:06 35.92100 -78.81631 11946 ft 315 kts 71°
2026-05-06 16:06 35.92371 -78.78973 13440 ft 320 kts 92°
2026-05-06 16:06 35.92204 -78.76202 14814 ft 326 kts 97°
2026-05-06 16:07 35.92036 -78.73379 16140 ft 333 kts 93°
2026-05-06 16:07 35.92037 -78.70480 17480 ft 340 kts 89°
2026-05-06 16:07 35.92093 -78.67560 18712 ft 347 kts 90°
2026-05-06 16:07 35.92077 -78.64537 19834 ft 354 kts 91°
2026-05-06 16:08 35.92035 -78.61454 20933 ft 361 kts 91°
2026-05-06 16:08 35.92023 -78.58359 21964 ft 369 kts 90°
2026-05-06 16:08 35.92020 -78.55141 22990 ft 376 kts 90°
2026-05-06 16:08 35.92002 -78.51880 23963 ft 383 kts 90°
2026-05-06 16:09 35.91981 -78.48560 24860 ft 390 kts 90°
2026-05-06 16:09 35.91962 -78.45216 25751 ft 396 kts 90°
2026-05-06 16:09 35.91944 -78.41777 26604 ft 403 kts 90°
2026-05-06 16:09 35.91921 -78.38275 27475 ft 409 kts 90°
2026-05-06 16:10 35.91899 -78.34735 28327 ft 416 kts 90°
2026-05-06 16:10 35.91947 -78.31137 29124 ft 422 kts 83°
2026-05-06 16:10 35.92326 -78.27537 29949 ft 428 kts 81°
2026-05-06 16:10 35.92680 -78.23855 30692 ft 434 kts 82°
2026-05-06 16:11 35.93002 -78.20180 31385 ft 439 kts 81°
2026-05-06 16:11 35.93359 -78.16408 32118 ft 441 kts 80°
2026-05-06 16:11 35.93733 -78.12628 32873 ft 443 kts 80°
2026-05-06 16:11 35.94092 -78.08837 33649 ft 445 kts 80°
2026-05-06 16:12 35.94444 -78.05033 34388 ft 445 kts 79°
2026-05-06 16:12 35.94801 -78.01262 34946 ft 449 kts 79°
2026-05-06 16:12 35.95167 -77.97410 35466 ft 453 kts 78°
2026-05-06 16:12 35.95595 -77.93531 35936 ft 454 kts 72°
2026-05-06 16:13 35.96487 -77.89819 36382 ft 449 kts 61°
2026-05-06 16:13 35.97810 -77.86396 36801 ft 443 kts 50°
2026-05-06 16:13 35.99491 -77.83243 37242 ft 439 kts 45°
2026-05-06 16:13 36.01227 -77.80120 37710 ft 442 kts 45°
2026-05-06 16:14 36.02963 -77.76957 38089 ft 445 kts 45°
2026-05-06 16:14 36.04714 -77.73773 38457 ft 448 kts 45°
2026-05-06 16:14 36.06480 -77.70567 38783 ft 451 kts 45°
2026-05-06 16:14 36.08252 -77.67349 39105 ft 453 kts 45°
2026-05-06 16:15 36.10001 -77.64159 39460 ft 454 kts 45°
2026-05-06 16:15 36.11786 -77.60905 39755 ft 456 kts 45°
2026-05-06 16:15 36.13572 -77.57649 40092 ft 456 kts 45°
2026-05-06 16:15 36.15333 -77.54430 40437 ft 455 kts 45°
2026-05-06 16:16 36.17110 -77.51182 40772 ft 454 kts 45°
2026-05-06 16:16 36.18885 -77.47937 41130 ft 452 kts 45°
2026-05-06 16:16 36.20644 -77.44717 41512 ft 449 kts 45°
2026-05-06 16:16 36.22368 -77.41551 41910 ft 446 kts 45°
2026-05-06 16:17 36.24098 -77.38380 42313 ft 442 kts 45°
2026-05-06 16:17 36.25813 -77.35231 42715 ft 439 kts 45°
2026-05-06 16:17 36.27514 -77.32104 43125 ft 434 kts 45°
2026-05-06 16:17 36.29197 -77.29010 43555 ft 430 kts 45°
2026-05-06 16:18 36.30871 -77.26039 43958 ft 418 kts 39°
2026-05-06 16:18 36.32798 -77.23418 44386 ft 400 kts 31°
2026-05-06 16:18 36.34839 -77.21143 44802 ft 391 kts 28°
2026-05-06 16:18 36.36858 -77.18890 45025 ft 390 kts 29°
2026-05-06 16:19 36.40940 -77.14317 45024 ft 399 kts 29°
2026-05-06 16:19 36.45082 -77.09677 45041 ft 408 kts 30°
2026-05-06 16:20 36.49351 -77.04888 45036 ft 416 kts 30°
2026-05-06 16:20 36.53664 -77.00040 45033 ft 424 kts 31°
2026-05-06 16:21 36.58092 -76.95054 45037 ft 432 kts 31°
2026-05-06 16:21 36.62567 -76.90009 45041 ft 439 kts 31°
2026-05-06 16:22 36.67139 -76.84843 45038 ft 445 kts 31°
2026-05-06 16:22 36.71739 -76.79642 45038 ft 452 kts 31°
2026-05-06 16:23 36.76443 -76.74309 45034 ft 457 kts 31°
2026-05-06 16:23 36.81153 -76.68964 45030 ft 463 kts 32°
2026-05-06 16:24 36.85950 -76.63508 45029 ft 468 kts 32°
2026-05-06 16:24 36.90763 -76.58024 45031 ft 473 kts 32°
2026-05-06 16:25 36.95656 -76.52440 45019 ft 477 kts 32°
2026-05-06 16:25 37.00552 -76.46841 45020 ft 479 kts 32°
2026-05-06 16:26 37.05459 -76.41218 45008 ft 476 kts 32°
2026-05-06 16:26 37.10337 -76.35620 45015 ft 474 kts 33°
2026-05-06 16:27 37.15188 -76.30049 45018 ft 476 kts 33°
2026-05-06 16:27 37.20089 -76.24402 45014 ft 480 kts 33°
2026-05-06 16:28 37.24991 -76.18747 45012 ft 482 kts 33°
2026-05-06 16:28 37.29921 -76.13043 45009 ft 481 kts 33°
2026-05-06 16:29 37.34836 -76.07353 44999 ft 479 kts 33°
2026-05-06 16:29 37.39691 -76.01719 44992 ft 478 kts 33°
2026-05-06 16:30 37.43777 -75.96976 44985 ft 480 kts 33°
2026-05-06 16:30 37.49515 -75.90290 45003 ft 484 kts 34°
2026-05-06 16:31 37.54649 -75.84883 45003 ft 472 kts 24°
2026-05-06 16:31 37.60257 -75.80659 44990 ft 467 kts 21°
2026-05-06 16:32 37.65799 -75.76485 44992 ft 466 kts 21°
2026-05-06 16:32 37.71386 -75.72301 44991 ft 467 kts 21°
2026-05-06 16:33 37.76993 -75.68081 44994 ft 471 kts 22°
2026-05-06 16:34 37.85420 -75.61605 45005 ft 476 kts 27°
2026-05-06 16:34 37.90857 -75.56846 45016 ft 473 kts 27°
2026-05-06 16:35 37.96261 -75.52164 45007 ft 473 kts 27°
2026-05-06 16:35 38.01715 -75.47397 45017 ft 476 kts 27°
2026-05-06 16:36 38.07198 -75.42716 45006 ft 478 kts 25°
2026-05-06 16:36 38.12835 -75.38147 45008 ft 483 kts 26°
2026-05-06 16:37 38.18502 -75.33506 44988 ft 486 kts 26°
2026-05-06 16:37 38.24213 -75.28904 45001 ft 480 kts 22°
2026-05-06 16:38 38.30222 -75.25661 44999 ft 470 kts 14°
2026-05-06 16:38 38.36369 -75.22682 45013 ft 475 kts 14°
2026-05-06 16:39 38.42566 -75.19686 45000 ft 478 kts 14°
2026-05-06 16:39 38.48784 -75.16667 44996 ft 475 kts 14°
2026-05-06 16:40 38.54950 -75.13672 44968 ft 473 kts 14°
2026-05-06 16:40 38.61097 -75.10676 44976 ft 477 kts 15°
2026-05-06 16:41 38.66917 -75.06386 44964 ft 495 kts 32°
2026-05-06 16:41 38.72140 -75.00468 44975 ft 500 kts 36°
2026-05-06 16:42 38.77305 -74.94530 44968 ft 500 kts 36°
2026-05-06 16:42 38.82624 -74.88882 44978 ft 493 kts 33°
2026-05-06 16:43 38.87937 -74.83369 44967 ft 493 kts 33°
2026-05-06 16:43 38.93300 -74.77793 44978 ft 497 kts 33°
2026-05-06 16:44 38.98711 -74.72150 44973 ft 500 kts 34°
2026-05-06 16:44 39.04049 -74.66528 44974 ft 497 kts 34°
2026-05-06 16:45 39.09411 -74.60894 44961 ft 495 kts 34°
2026-05-06 16:45 39.14713 -74.55299 44964 ft 493 kts 34°
2026-05-06 16:46 39.19982 -74.49546 44948 ft 496 kts 36°
2026-05-06 16:46 39.25257 -74.43798 44955 ft 496 kts 35°
2026-05-06 16:46 39.27887 -74.40941 44186 ft 492 kts 36°
2026-05-06 16:47 39.30381 -74.38189 41680 ft 472 kts 36°
2026-05-06 16:47 39.32898 -74.35403 40083 ft 472 kts 35°
2026-05-06 16:47 39.35381 -74.32672 39925 ft 464 kts 35°
2026-05-06 16:47 39.37830 -74.29979 39181 ft 462 kts 35°
2026-05-06 16:48 39.40276 -74.27284 38180 ft 463 kts 35°
2026-05-06 16:48 39.42734 -74.24568 37065 ft 463 kts 36°
2026-05-06 16:48 39.45187 -74.21853 35938 ft 464 kts 36°
2026-05-06 16:48 39.47608 -74.19173 34827 ft 464 kts 36°
2026-05-06 16:49 39.50061 -74.16437 33620 ft 464 kts 36°
2026-05-06 16:49 39.52443 -74.13622 32941 ft 456 kts 42°
2026-05-06 16:49 39.54485 -74.10532 32942 ft 451 kts 46°
2026-05-06 16:49 39.56513 -74.07380 32938 ft 467 kts 46°
2026-05-06 16:50 39.58626 -74.04096 32935 ft 477 kts 46°
2026-05-06 16:50 39.62859 -73.97420 32937 ft 477 kts 47°
2026-05-06 16:51 39.66374 -73.91913 32935 ft 475 kts 47°
2026-05-06 16:51 39.71261 -73.84213 32936 ft 475 kts 47°
2026-05-06 16:52 39.74769 -73.78677 32932 ft 477 kts 47°
2026-05-06 16:52 39.78998 -73.71990 32936 ft 479 kts 47°
2026-05-06 16:53 39.83193 -73.65340 32936 ft 475 kts 47°
2026-05-06 16:53 39.85264 -73.62051 31977 ft 467 kts 47°
2026-05-06 16:53 39.87349 -73.58745 30258 ft 477 kts 47°
2026-05-06 16:53 39.89470 -73.55384 28420 ft 481 kts 47°
2026-05-06 16:54 39.91823 -73.52273 26457 ft 482 kts 39°
2026-05-06 16:54 39.94324 -73.49376 24332 ft 460 kts 40°
2026-05-06 16:54 39.96547 -73.46721 21668 ft 418 kts 40°
2026-05-06 16:54 39.98604 -73.44249 19237 ft 388 kts 39°
2026-05-06 16:55 40.00657 -73.41849 18095 ft 408 kts 39°
2026-05-06 16:55 40.02848 -73.39284 18019 ft 439 kts 39°
2026-05-06 16:55 40.05117 -73.36572 18022 ft 449 kts 40°
2026-05-06 16:55 40.07434 -73.33795 18019 ft 452 kts 40°
2026-05-06 16:56 40.09748 -73.31056 18020 ft 445 kts 39°
2026-05-06 16:56 40.12036 -73.28344 18016 ft 443 kts 40°
2026-05-06 16:56 40.14323 -73.25618 18022 ft 443 kts 40°
2026-05-06 16:56 40.16574 -73.22930 18019 ft 443 kts 40°
2026-05-06 16:57 40.18850 -73.20211 18019 ft 444 kts 40°
2026-05-06 16:57 40.21137 -73.17483 18015 ft 444 kts 40°
2026-05-06 16:57 40.23405 -73.14770 17769 ft 432 kts 40°
2026-05-06 16:57 40.25618 -73.12113 15674 ft 437 kts 39°
2026-05-06 16:58 40.27799 -73.09500 13400 ft 398 kts 39°
2026-05-06 16:58 40.29708 -73.07199 11196 ft 362 kts 39°
2026-05-06 16:58 40.31504 -73.05058 9286 ft 337 kts 39°
2026-05-06 16:58 40.33195 -73.03038 7329 ft 321 kts 40°
2026-05-06 16:59 40.34811 -73.01103 5484 ft 308 kts 41°
2026-05-06 16:59 40.36369 -72.99225 4148 ft 298 kts 41°
2026-05-06 16:59 40.37895 -72.97392 4011 ft 296 kts 41°
2026-05-06 16:59 40.39405 -72.95576 4003 ft 293 kts 41°
2026-05-06 17:00 40.40890 -72.93798 4001 ft 291 kts 41°
2026-05-06 17:00 40.42381 -72.92000 4010 ft 288 kts 40°
2026-05-06 17:00 40.43867 -72.90212 4021 ft 291 kts 41°
2026-05-06 17:00 40.45356 -72.88399 4014 ft 306 kts 41°
2026-05-06 17:01 40.46907 -72.86530 4014 ft 296 kts 40°
2026-05-06 17:01 40.48407 -72.84723 4016 ft 291 kts 41°
2026-05-06 17:01 40.49907 -72.82912 4013 ft 294 kts 41°
2026-05-06 17:01 40.51411 -72.81093 4020 ft 293 kts 41°
2026-05-06 17:02 40.52906 -72.79281 4022 ft 291 kts 41°
2026-05-06 17:02 40.54404 -72.77467 4019 ft 292 kts 41°
2026-05-06 17:02 40.55902 -72.75651 4021 ft 293 kts 41°
2026-05-06 17:02 40.57385 -72.73852 4020 ft 293 kts 41°
2026-05-06 17:03 40.58887 -72.72027 4013 ft 293 kts 41°
2026-05-06 17:03 40.60473 -72.70354 4012 ft 290 kts 26°
2026-05-06 17:03 40.62390 -72.69669 4013 ft 284 kts
2026-05-06 17:03 40.64333 -72.69521 4016 ft 283 kts 358°
2026-05-06 17:04 40.66307 -72.69433 4015 ft 284 kts 357°
2026-05-06 17:04 40.68255 -72.69357 4011 ft 272 kts 357°
2026-05-06 17:04 40.70082 -72.69276 4012 ft 254 kts 357°
2026-05-06 17:04 40.71822 -72.69194 4014 ft 246 kts 357°
2026-05-06 17:05 40.73548 -72.69104 4013 ft 252 kts 357°
2026-05-06 17:05 40.75300 -72.69018 4011 ft 257 kts 356°
2026-05-06 17:05 40.77092 -72.68929 4011 ft 257 kts 356°
2026-05-06 17:05 40.78890 -72.68839 4013 ft 258 kts 356°
2026-05-06 17:06 40.80682 -72.68747 4018 ft 255 kts 357°
2026-05-06 17:06 40.82418 -72.68652 4014 ft 252 kts 357°
2026-05-06 17:06 40.84191 -72.68559 4012 ft 256 kts 356°
2026-05-06 17:06 40.85972 -72.68486 4015 ft 257 kts 356°
2026-05-06 17:07 40.87766 -72.68403 4008 ft 258 kts 357°
2026-05-06 17:07 40.89550 -72.68316 4010 ft 255 kts 357°
2026-05-06 17:07 40.91326 -72.68229 4014 ft 255 kts 356°
2026-05-06 17:07 40.93090 -72.68143 4018 ft 258 kts 357°
2026-05-06 17:08 40.94885 -72.68060 4020 ft 258 kts 356°
2026-05-06 17:08 40.96689 -72.67977 4021 ft 258 kts 356°
2026-05-06 17:08 40.98487 -72.67884 4024 ft 257 kts 357°
2026-05-06 17:08 41.00258 -72.67797 4021 ft 256 kts 356°
2026-05-06 17:09 41.02053 -72.67708 4022 ft 258 kts 357°
2026-05-06 17:09 41.03858 -72.67617 4021 ft 260 kts 356°
2026-05-06 17:09 41.05649 -72.67530 4024 ft 260 kts 357°
2026-05-06 17:09 41.07453 -72.67436 4020 ft 258 kts 357°
2026-05-06 17:10 41.09253 -72.67347 4009 ft 259 kts 357°
2026-05-06 17:10 41.11062 -72.67258 4009 ft 259 kts 356°
2026-05-06 17:10 41.12868 -72.67166 4008 ft 260 kts 357°
2026-05-06 17:10 41.14678 -72.67070 4010 ft 261 kts 356°
2026-05-06 17:11 41.16490 -72.66969 4005 ft 259 kts 357°
2026-05-06 17:11 41.18276 -72.66873 3767 ft 253 kts 356°
2026-05-06 17:11 41.20027 -72.66987 3164 ft 250 kts 348°
2026-05-06 17:11 41.21713 -72.67249 2672 ft 246 kts 347°
2026-05-06 17:12 41.23365 -72.67501 2511 ft 226 kts 347°
2026-05-06 17:12 41.24923 -72.67717 2508 ft 219 kts 347°
2026-05-06 17:12 41.26381 -72.67911 2503 ft 205 kts 347°
2026-05-06 17:12 41.27612 -72.68070 2499 ft 201 kts 346°
2026-05-06 17:13 41.28999 -72.68247 2492 ft 198 kts 346°
2026-05-06 17:13 41.30349 -72.68402 2505 ft 196 kts 347°
2026-05-06 17:13 41.31718 -72.68555 2502 ft 199 kts 347°
2026-05-06 17:13 41.33095 -72.68732 2509 ft 196 kts 346°
2026-05-06 17:14 41.34397 -72.68892 2505 ft 177 kts 346°
2026-05-06 17:14 41.35578 -72.68990 2501 ft 167 kts 347°
2026-05-06 17:14 41.36738 -72.69094 2504 ft 167 kts 347°
2026-05-06 17:14 41.37911 -72.69201 2506 ft 168 kts 346°
2026-05-06 17:15 41.38910 -72.69727 2495 ft 144 kts 301°
2026-05-06 17:15 41.39236 -72.70866 2482 ft 132 kts 274°
2026-05-06 17:15 41.39466 -72.72079 2484 ft 136 kts 277°
2026-05-06 17:15 41.39718 -72.73282 2476 ft 133 kts 279°
2026-05-06 17:16 41.40084 -72.74438 2483 ft 137 kts 285°
2026-05-06 17:16 41.40446 -72.75619 2479 ft 137 kts 283°
2026-05-06 17:16 41.40788 -72.76796 2486 ft 137 kts 284°
2026-05-06 17:16 41.41133 -72.77973 2489 ft 139 kts 283°
2026-05-06 17:17 41.41486 -72.79193 2485 ft 142 kts 284°
2026-05-06 17:17 41.41844 -72.80424 2486 ft 143 kts 283°
2026-05-06 17:17 41.42197 -72.81653 2490 ft 142 kts 283°
2026-05-06 17:17 41.42538 -72.82890 2490 ft 141 kts 277°
2026-05-06 17:18 41.42585 -72.84159 2490 ft 135 kts 259°
2026-05-06 17:18 41.42366 -72.85362 2487 ft 133 kts 245°
2026-05-06 17:18 41.41894 -72.86395 2486 ft 131 kts 232°
2026-05-06 17:18 41.41226 -72.87206 2206 ft 131 kts 216°
2026-05-06 17:19 41.40392 -72.87730 1934 ft 135 kts 201°
2026-05-06 17:19 41.39448 -72.87893 1700 ft 136 kts 185°
2026-05-06 17:19 41.38578 -72.87936 1681 ft 129 kts 186°
2026-05-06 17:19 41.37569 -72.88029 1801 ft 144 kts 184°
2026-05-06 17:20 41.36627 -72.88081 1803 ft 134 kts 184°
2026-05-06 17:20 41.35687 -72.88144 1789 ft 130 kts 184°
2026-05-06 17:20 41.34803 -72.88203 1208 ft 130 kts 184°
2026-05-06 17:20 41.33944 -72.88267 983 ft 115 kts 184°
2026-05-06 17:21 41.33118 -72.88316 985 ft 124 kts 184°
2026-05-06 17:21 41.32276 -72.88378 978 ft 120 kts 185°
2026-05-06 17:21 41.31445 -72.88432 913 ft 118 kts 183°
2026-05-06 17:21 41.30619 -72.88484 787 ft 119 kts 184°
2026-05-06 17:22 41.29797 -72.88540 624 ft 118 kts 184°
2026-05-06 17:22 41.28983 -72.88604 463 ft 116 kts 184°
2026-05-06 17:22 41.28178 -72.88657 312 ft 116 kts 184°
2026-05-06 17:22 41.27373 -72.88710 136 ft 117 kts 183°
2026-05-06 17:23 41.26577 -72.88765 9 ft 102 kts 183°
2026-05-06 17:23 41.26321 -72.88782 11 ft 11 kts 182°
2026-05-06 17:23 41.26255 -72.88734 12 ft 13 kts 88°
2026-05-06 17:23 41.26308 -72.88571 12 ft 18 kts 36°
2026-05-06 17:24 41.26436 -72.88460 12 ft 18 kts
2026-05-06 17:24 41.26528 -72.88568 11 ft 26 kts 311°
2026-05-06 17:24 41.26624 -72.88637 10 ft 15 kts 34°
2026-05-06 17:24 41.26711 -72.88536 12 ft 5 kts 41°
2026-05-06 17:25 41.26776 -72.88500 13 ft 12 kts 22°
2026-05-06 17:25 41.26780 -72.88498 13 ft 0 kts 28°